User: anonymous   Login
Location: Unspecified
(0.0000°N, 0.0000°E)
Time: 23:25:32
(UTC+00:00)
Language:

NOSS 2-3 (E) - Orbit

View from above orbital plane
View from above orbital plane
View from above satellite
View from above satellite

Ground track
Ground track

The orbit data is extracted from the following two-line orbital elements,

1 23936U 96029E   17226.86605210 0.00000000  00000-0  00000-0 0    08
2 23936  63.3720 262.7201 0608000  13.4787 346.5213 13.40870722    08
Epoch (UTC): 14 August 2017 20:47:06
Eccentricity: 0.0608000
inclination: 63.3720°
perigee height: 651 km
apogee height: 1561 km
right ascension of ascending node: 262.7201°
argument of perigee: 13.4787°
revolutions per day: 13.40870722
mean anomaly at epoch: 346.5213°
orbit number at epoch: 0

The dashed part of the orbit path shows where the satellite is in the earth's shadow,  

DLR